Location: Sungai Aba A
(2.6833°N, 113.5167°E)
Time: 12:13:47
(UTC+00:00)

Daily predictions for brighter satellites

Satellite Brightness Start Highest point End
(mag) Time Altitude Azimuth Time Altitude Azimuth Time Altitude Azimuth
ARIANE R/B 4.3 12:00:34 10° WNW 12:04:38 73° N 12:09:47 30° E
Cosmos 1943 Rocket 3.1 12:00:22 10° NNE 12:04:26 30° ENE 12:04:26 30° ENE
Fermi 3.7 12:03:41 10° WNW 12:07:22 76° NW 12:07:22 76° NW
Resurs 01 Rocket 4.0 12:14:48 12° NNE 12:14:48 12° NNE 12:15:18 10° NNE
Cosmos 1513 Rocket 4.5 12:07:27 10° N 12:13:46 63° E 12:14:59 53° SE
CZ-4B R/B 4.0 12:18:45 36° NE 12:18:45 36° NE 12:22:26 10° N
Cosmos 2221 4.1 12:31:21 28° N 12:31:21 28° N 12:33:25 10° N
Cosmos 1464 Rocket 4.1 12:24:17 10° N 12:29:32 58° NE 12:29:32 58° NE
CZ-4 R/B 3.2 12:33:52 25° NNW 12:33:52 25° NNW 12:35:35 10° NNW
Resurs 1-3 4.5 12:32:17 46° W 12:32:17 46° W 12:36:09 10° NNW
Milstar 3 4.1 12:25:40 10° W 12:32:25 38° SSW 12:35:03 33° S
Cosmos 2278 Rocket 2.6 12:31:13 10° NNW 12:36:42 55° WSW 12:37:23 52° SW
ARIANE 5 DEB (SYLDA) 4.4 12:34:09 10° WSW 12:42:18 49° SW 12:42:18 49° SW
NOSS 3-1 (C) 4.2 12:42:52 10° NNW 12:51:55 76° ENE 12:52:32 74° ESE
Centaur AC-119 4.3 13:06:45 10° WSW 13:22:53 27° ENE 13:34:16 10° ENE
ARIANE 5 R/B 3.8 19:11:39 47° ENE 19:11:39 47° ENE 19:26:34 10° E
USA 215 3.8 19:42:59 10° NE 19:49:13 48° SE 19:49:25 48° SE
ARIANE 5 DEB (SYLDA) 4.4 19:54:57 64° SW 19:56:14 72° S 20:01:18 10° E
NOSS 3-2 (A) 4.5 19:58:35 28° ESE 19:58:35 28° ESE 20:02:42 10° NE
H-2A R/B 3.4 19:53:44 10° NE 19:58:36 36° ESE 19:59:40 33° SE
ATLAS 5 CENTAUR R/B 3.2 19:32:14 10° WNW 20:01:39 64° SSW 20:07:51 10° SE
Cosmos 2366 rocket 4.0 20:08:29 72° NNW 20:08:29 72° NNW 20:14:14 10° N
ARIANE 5 R/B 3.8 20:06:40 53° SW 20:08:44 63° S 20:13:16 10° ESE
ATLAS 2AS CENTAUR R/B 4.4 20:04:06 10° N 20:09:42 29° ENE 20:15:17 10° SE
SL-8 R/B 4.4 20:11:57 51° ENE 20:11:57 51° ENE 20:16:06 10° SE
SL-16 R/B 4.3 20:19:41 17° NW 20:19:41 17° NW 20:21:09 10° NNW
Cosmos 2263 Rocket 3.2 20:13:32 30° SSE 20:15:39 43° ESE 20:20:57 10° NE
GOES 2 Rocket 3.9 20:15:57 66° NW 20:16:21 68° NNW 20:23:59 10° NE
CENTAUR R/B 2.1 20:17:25 63° NNE 20:17:25 63° NNE 20:21:46 10° NNE
Cosmos 2219 Rocket 2.1 20:11:08 10° NNW 20:16:48 83° ENE 20:22:28 10° SSE
Cosmos 292 Rocket 4.1 20:17:52 58° ESE 20:17:54 58° ESE 20:22:30 10° NNE
Cosmos 2219 3.1 20:20:39 70° S 20:21:20 84° ESE 20:27:00 10° NNE
Cosmos 158 Rocket 4.0 20:21:35 10° N 20:26:51 76° ENE 20:31:59 10° SSE
ASTRO E2 4.4 20:28:35 24° NNE 20:28:35 24° NNE 20:30:18 10° NE
Cosmos 2227 Rocket 3.2 20:29:40 31° NW 20:29:40 31° NW 20:33:21 10° N
Cosmos 2084 Rocket 3.7 20:29:02 66° SE 20:29:12 67° ESE 20:33:35 10° NNE
Cosmos 1898 Rocket 3.6 20:29:38 46° S 20:31:12 74° ESE 20:36:26 10° NNE
CBERS-1 3.9 20:28:01 10° NNE 20:33:07 85° ESE 20:34:42 46° S
Cosmos 2208 Rocket 3.8 20:28:50 10° NNW 20:33:59 74° WSW 20:35:30 46° S
Cosmos 1484 Rocket 3.1 20:30:35 10° NNE 20:33:42 60° NNE 20:33:42 60° NNE
Hubble Space Telescope 0.8 20:35:51 68° NE 20:35:51 68° NE 20:39:40 10° ESE
COSMOS 2428 3.6 20:31:08 10° N 20:36:35 48° ENE 20:42:03 10° SSE
USA 234 3.4 20:36:31 10° SSE 20:42:46 48° SW 20:49:00 10° NW
BlueWalker 3 3.7 20:47:28 19° NNW 20:47:28 19° NNW 20:49:17 10° N
DMSP B5D2-2 3.9 20:49:05 10° S 20:54:17 80° WSW 20:59:30 10° NNW
Cosmos 1536 Rocket 3.6 20:56:14 40° SW 20:57:27 54° W 21:01:46 10° N
Cosmos 1937 Rocket 3.4 20:57:05 22° SSW 21:00:33 76° WNW 21:05:50 10° N
Geosat 4.2 20:57:00 10° SSE 21:01:59 71° ENE 21:06:57 10° NNW
Spelda 4.4 20:57:56 23° W 21:02:39 82° N 21:05:40 10° E
Cosmos 1606 2.7 21:07:26 10° N 21:10:57 72° E 21:14:30 10° S
Cosmos 1455 Rocket 4.2 21:11:51 10° NW 21:15:20 23° W 21:15:36 23° W
Palapa 6 Rocket 2.7 21:16:44 22° W 21:18:56 58° SSW 21:22:58 10° SE
ARIANE 2 DEB 3.4 21:18:08 18° W 21:20:33 56° N 21:23:21 10° ENE
Cosmos 1939 Rocket 3.9 21:18:21 10° NNW 21:21:43 26° WNW 21:23:22 20° WSW
Cosmos 1934 Rocket 3.9 21:16:17 10° S 21:22:24 89° W 21:28:34 10° N
Iridium 2 2.6 21:20:50 10° S 21:23:30 82° W 21:26:09 10° N
GPS 2-15 Rocket1 3.0 21:20:43 21° WSW 21:23:47 89° SSE 21:28:24 10° ENE
ARIANE 3 DEB 2.0 21:25:43 20° WNW 21:27:12 51° N 21:29:22 10° ENE
SJ-12 4.2 21:26:35 10° NNE 21:30:29 68° ESE 21:34:24 10° S
USA 215 4.4 21:26:46 10° N 21:31:55 25° NW 21:36:47 11° WSW
ARIANE 5 R/B 2.6 21:30:17 10° N 21:35:07 54° WNW 21:39:59 10° SSW
IRS-1C 4.3 21:30:26 10° N 21:35:33 51° WNW 21:40:43 10° SSW
SL-08 RB Rocket 3.7 21:31:29 10° N 21:35:49 60° WNW 21:40:12 10° SSW
ARGOS 3.5 21:32:03 10° N 21:37:08 44° WNW 21:42:15 10° SSW
H-2A R/B 3.8 21:34:43 10° NW 21:37:37 15° WNW 21:40:14 11° WSW
Cosmos 1375 Rocket 4.5 21:31:14 10° NNW 21:37:43 78° WSW 21:44:07 10° SSE
Ariane H10 3.1 21:30:03 10° W 21:38:33 70° N 21:41:40 10° E
ARIANE 5 R/B 1.0 21:37:17 15° WSW 21:38:46 48° S 21:41:12 10° E
Cosmos 2228 3.0 21:36:02 10° NNW 21:40:18 61° W 21:44:32 10° S
FUSE 4.0 21:36:04 13° WSW 21:40:56 85° NNW 21:46:16 10° ENE
NOSS 3-2 (C) 2.9 21:36:11 10° SSW 21:41:03 61° WNW 21:45:57 10° NNE
Cosmos 1892 Rocket 3.5 21:37:20 10° S 21:41:37 70° W 21:45:54 10° N
SWIFT 3.9 21:40:28 10° SSW 21:43:38 23° SSE 21:46:46 10° ESE
NOSS 0 Rocket 4.0 21:38:36 10° NNW 21:44:43 60° WSW 21:50:50 10° S
SL-24 R/B - RUBIN 2 4.5 21:43:34 10° NNW 21:49:26 72° ENE 21:54:33 10° SSE
DELTA-4 R/B 3.3 21:47:58 10° WSW 21:58:21 69° S 22:01:43 10° E
deb Ariane 4.4 22:03:50 10° W 22:22:05 81° S 22:25:57 10° E
